Weather History for Mt. Clemens, MI

Change the Weather History Date:

Friday, April 19, 2013

  Actual Average Record
Temperature  
Mean Temperature 50 °F -  
Max Temperature 61 °F 58 °F 84 °F (2005)
Min Temperature 38 °F 38 °F 22 °F (1983)
Degree Days  
Heating Degree Days 16    
Moisture  
Dew Point 46 °F    
Average Humidity 86    
Maximum Humidity 100    
Minimum Humidity 58    
Precipitation  
Precipitation 0.14 in - - ()
Sea Level Pressure  
Sea Level Pressure 29.52 in    
Wind  
Wind Speed 11 mph (SSW)    
Max Wind Speed 30 mph    
Max Gust Speed 43 mph    
Visibility 9 miles    
Events Rain    
Averages and records for this station are not official NWS values.
T = Trace of Precipitation, MM = Missing Value Source: NWS Daily Summary

Daily Weather History Graph

Daily Weather History Graph

Search for Another Location

Airport:

Trip Planner

Search our weather history database for the weather conditions in past years. The results will help you decide how hot, cold, wet, or windy it might be!

Date:

Astronomy

Apr. 19, 2013 Rise Set
Actual Time 6:43 AM EDT 8:18 PM EDT
Civil Twilight 6:13 AM EDT 8:47 PM EDT
Nautical Twilight 5:37 AM EDT 9:23 PM EDT
Astronomical Twilight 4:59 AM EDT 10:02 PM EDT
Moon 1:53 PM EDT (4/19) 3:06 AM EDT (4/19)
Length of Visible Light 14h 34m
Length of Day
13h 34m
First Quarter, 61% of the Moon is Illuminated
Apr 19
First Quarter
Apr 25
Full
May 2
Last Quarter
May 9
New
May 18
First Quarter

Hourly Weather History & Observations

Time (EDT) Temp. Windchill Dew Point Humidity Pressure Visibility Wind Dir Wind Speed Gust Speed Precip Events Conditions
12:04 AM 59.0 °F - 59.0 °F 100% 29.61 in 10.0 mi South 4.6 mph - N/A Rain Light Rain
12:13 AM 59.0 °F - 59.0 °F 100% 29.60 in 10.0 mi South 4.6 mph - N/A   Overcast
12:37 AM 59.0 °F - 59.0 °F 100% 29.57 in 10.0 mi SSE 3.5 mph - N/A   Light Drizzle
12:45 AM 59.0 °F - 57.2 °F 94% 29.56 in 10.0 mi SSE 3.5 mph - N/A   Overcast
12:55 AM 58.3 °F - 57.9 °F 99% 29.55 in 10.0 mi SE 5.8 mph - 0.00 in   Overcast
1:55 AM 56.3 °F - 55.9 °F 99% 29.54 in 10.0 mi SSE 11.5 mph - N/A   Overcast
2:00 AM 57.2 °F - 55.4 °F 94% 29.54 in 10.0 mi South 10.4 mph - N/A Rain Light Rain
2:03 AM 57.2 °F - 55.4 °F 94% 29.53 in 10.0 mi South 8.1 mph - N/A   Overcast
2:04 AM 57.2 °F - 55.4 °F 94% 29.54 in 10.0 mi South 6.9 mph - N/A Rain Light Rain
2:10 AM 57.2 °F - 55.4 °F 94% 29.54 in 10.0 mi SSW 10.4 mph - N/A   Overcast
2:19 AM 57.2 °F - 57.2 °F 100% 29.53 in 10.0 mi SSW 6.9 mph - N/A Rain Light Rain
2:32 AM 57.2 °F - 55.4 °F 94% 29.52 in 9.0 mi South 10.4 mph - N/A Rain Light Rain
2:41 AM 55.4 °F - 55.4 °F 100% 29.51 in 9.0 mi SSE 11.5 mph - N/A Rain Light Rain
2:47 AM 55.4 °F - 55.4 °F 100% 29.51 in 9.0 mi SSE 11.5 mph - N/A Rain Light Rain
2:48 AM 55.4 °F - 55.4 °F 100% 29.51 in 9.0 mi SSE 11.5 mph - N/A Rain Light Rain
2:55 AM 54.9 °F - 54.7 °F 99% 29.52 in 7.0 mi South 9.2 mph - 0.02 in Rain Light Rain
2:59 AM 55.4 °F - 55.4 °F 100% 29.52 in 6.0 mi South 11.5 mph - N/A Rain Light Rain
3:01 AM 55.4 °F - 53.6 °F 94% 29.51 in 6.0 mi SSE 10.4 mph - N/A Rain Light Rain
3:22 AM 53.6 °F - 53.6 °F 100% 29.49 in 6.0 mi SSE 5.8 mph - N/A Rain Light Rain
3:25 AM 53.6 °F - 53.6 °F 100% 29.49 in 7.0 mi SSE 5.8 mph - N/A Rain Light Rain
3:27 AM 53.6 °F - 53.6 °F 100% 29.49 in 7.0 mi SSE 5.8 mph - N/A   Overcast
3:30 AM 53.6 °F - 53.6 °F 100% 29.49 in 7.0 mi SSE 5.8 mph - N/A Rain Light Rain
3:37 AM 53.6 °F - 53.6 °F 100% 29.48 in 7.0 mi SSE 4.6 mph - N/A Rain Light Rain
3:55 AM 54.0 °F - 53.6 °F 99% 29.46 in 6.0 mi SSE 6.9 mph - 0.04 in Rain Light Rain
3:57 AM 53.6 °F - 53.6 °F 100% 29.46 in 6.0 mi SSE 9.2 mph - N/A Rain Light Rain
4:01 AM 53.6 °F - 53.6 °F 100% 29.46 in 6.0 mi SSE 6.9 mph - N/A Rain Light Rain
4:03 AM 53.6 °F - 53.6 °F 100% 29.46 in 6.0 mi South 6.9 mph - N/A Rain Light Rain
4:36 AM 55.4 °F - 55.4 °F 100% 29.42 in 10.0 mi SSE 15.0 mph 24.2 mph N/A   Overcast
4:45 AM 55.4 °F - 55.4 °F 100% 29.40 in 10.0 mi SE 12.7 mph - N/A   Light Drizzle
4:55 AM 55.6 °F - 55.2 °F 99% 29.40 in 10.0 mi SE 10.4 mph - 0.03 in Rain Light Rain
5:55 AM 54.7 °F - 54.3 °F 99% 29.37 in 7.0 mi South 10.4 mph - 0.02 in Rain Light Rain
6:43 AM 57.2 °F - 57.2 °F 100% 29.31 in 7.0 mi South 15.0 mph 23.0 mph N/A   Overcast
6:55 AM 56.7 °F - 55.8 °F 97% 29.33 in 7.0 mi South 16.1 mph - N/A   Overcast
7:04 AM 57.2 °F - 55.4 °F 94% 29.31 in 7.0 mi South 13.8 mph - N/A   Overcast
7:16 AM 59.0 °F - 57.2 °F 94% 29.31 in 7.0 mi South 18.4 mph 25.3 mph N/A   Overcast
7:36 AM 60.8 °F - 59.0 °F 94% 29.32 in 7.0 mi SW 15.0 mph - N/A Rain Light Rain
7:40 AM 60.8 °F - 59.0 °F 94% 29.34 in 7.0 mi WSW 29.9 mph 42.6 mph N/A Rain Light Rain
7:55 AM 50.4 °F - 48.7 °F 94% 29.42 in 7.0 mi West 21.9 mph 27.6 mph N/A Rain Light Rain
8:17 AM 50.0 °F - 48.2 °F 94% 29.37 in 7.0 mi West 16.1 mph 25.3 mph N/A Rain Light Rain
8:24 AM 48.2 °F - 48.2 °F 100% 29.37 in 7.0 mi West 15.0 mph - N/A Rain Light Rain
8:45 AM 48.2 °F - 48.2 °F 100% 29.38 in 2.0 mi West 10.4 mph - N/A Rain Light Rain
8:55 AM 47.3 °F - 47.1 °F 99% 29.41 in 2.0 mi West 13.8 mph 19.6 mph 0.02 in Rain Light Rain
9:08 AM 46.4 °F 42.4 °F 46.4 °F 100% 29.39 in 2.0 mi West 8.1 mph - N/A Rain Light Rain
9:37 AM 46.4 °F 40.1 °F 44.6 °F 93% 29.40 in 7.0 mi West 15.0 mph 25.3 mph N/A Rain Light Rain
9:55 AM 45.0 °F 38.2 °F 42.1 °F 90% 29.43 in 10.0 mi West 15.0 mph 27.6 mph 0.01 in   Overcast
10:55 AM 43.3 °F 34.7 °F 38.5 °F 83% 29.47 in 10.0 mi WSW 20.7 mph 29.9 mph N/A   Overcast
11:47 AM 42.8 °F 33.5 °F 37.4 °F 81% 29.48 in 12.0 mi WSW 23.0 mph 28.8 mph N/A   Overcast
11:55 AM 42.8 °F 34.3 °F 35.2 °F 75% 29.51 in 12.0 mi WSW 19.6 mph 31.1 mph N/A   Overcast
12:13 PM 42.8 °F 34.8 °F 33.8 °F 70% 29.50 in 12.0 mi WSW 17.3 mph 32.2 mph N/A   Overcast
12:35 PM 42.8 °F 35.8 °F 33.8 °F 70% 29.50 in 12.0 mi WSW 13.8 mph 27.6 mph N/A   Overcast
12:55 PM 41.7 °F 33.1 °F 32.7 °F 70% 29.53 in 12.0 mi WSW 18.4 mph 32.2 mph N/A   Overcast
1:25 PM 42.8 °F 33.8 °F 32.0 °F 66% 29.51 in 12.0 mi WSW 21.9 mph 29.9 mph N/A   Overcast
1:55 PM 42.3 °F 32.4 °F 31.3 °F 65% 29.54 in 12.0 mi SW 25.3 mph 34.5 mph N/A   Overcast
2:55 PM 44.6 °F 35.5 °F 30.7 °F 58% 29.55 in 12.0 mi WSW 25.3 mph 33.4 mph N/A   Mostly Cloudy
3:53 PM 42.8 °F 33.5 °F 30.2 °F 61% 29.54 in 12.0 mi WSW 23.0 mph 38.0 mph N/A Rain Light Rain
3:55 PM 43.2 °F 34.0 °F 30.2 °F 60% 29.57 in 12.0 mi SW 23.0 mph 38.0 mph N/A Rain Light Rain
4:08 PM 42.8 °F 33.8 °F 30.2 °F 61% 29.55 in 12.0 mi SW 21.9 mph 33.4 mph N/A   Overcast
4:55 PM 43.0 °F 33.8 °F 30.0 °F 60% 29.60 in 12.0 mi WSW 23.0 mph 35.7 mph N/A   Mostly Cloudy
5:55 PM 42.3 °F 33.3 °F 29.5 °F 61% 29.65 in 12.0 mi WSW 20.7 mph 28.8 mph N/A   Overcast
6:55 PM 41.7 °F 33.1 °F 29.8 °F 63% 29.68 in 12.0 mi WSW 18.4 mph 27.6 mph N/A   Overcast
7:30 PM 41.0 °F 32.8 °F 30.2 °F 65% 29.68 in 10.0 mi SW 16.1 mph 26.5 mph N/A Rain Light Rain
7:44 PM 41.0 °F 31.9 °F 30.2 °F 65% 29.70 in 10.0 mi SW 19.6 mph 31.1 mph N/A   Overcast
7:55 PM 41.0 °F 30.9 °F 28.4 °F 61% 29.70 in 10.0 mi WSW 24.2 mph 28.8 mph 0.00 in   Overcast
8:14 PM 41.0 °F 31.1 °F 28.4 °F 61% 29.72 in 10.0 mi SW 23.0 mph 32.2 mph N/A   Overcast
8:29 PM 41.0 °F 32.8 °F 30.2 °F 65% 29.72 in 10.0 mi SW 16.1 mph 24.2 mph N/A   Overcast
8:55 PM 40.1 °F 30.5 °F 29.5 °F 66% 29.73 in 10.0 mi WSW 20.7 mph 26.5 mph 0.00 in   Overcast
9:55 PM 39.7 °F 30.6 °F 28.4 °F 64% 29.74 in 10.0 mi WSW 18.4 mph 28.8 mph N/A   Overcast
10:55 PM 39.2 °F 29.3 °F 27.9 °F 64% 29.74 in 10.0 mi WSW 20.7 mph 27.6 mph N/A   Overcast
11:40 PM 39.2 °F 29.0 °F 28.4 °F 65% 29.75 in 10.0 mi SW 21.9 mph 27.6 mph N/A Rain Light Rain
11:54 PM 39.2 °F 30.2 °F 28.4 °F 65% 29.75 in 10.0 mi WSW 17.3 mph 29.9 mph N/A   Overcast
11:55 PM 38.8 °F 29.1 °F 28.4 °F 66% 29.75 in 10.0 mi WSW 19.6 mph 29.9 mph 0.00 in   Overcast